Time,TemperatureF,DewpointF,PressureIn,WindDirection,WindDirectionDegrees,WindSpeedMPH,WindSpeedGustMPH,Humidity,HourlyPrecipIn,Conditions,Clouds,dailyrainin,SoftwareType,DateUTC
2013-04-17 00:00:00,64.2,59.6,30.26,SW,218,2.0,2.0,85,0.00,,---,0.00,VWS V14.01,2013-04-17 04:00:00,
2013-04-17 00:05:00,64.1,59.5,30.26,SSW,199,0.0,0.0,85,0.00,,---,0.00,VWS V14.01,2013-04-17 04:05:00,
2013-04-17 00:10:00,63.9,59.6,30.26,South,182,1.0,2.0,86,0.00,,---,0.00,VWS V14.01,2013-04-17 04:10:00,
2013-04-17 00:15:00,63.8,59.5,30.26,SSW,206,0.0,0.0,86,0.00,,---,0.00,VWS V14.01,2013-04-17 04:15:00,
2013-04-17 00:20:00,63.7,59.4,30.26,SW,217,1.0,1.0,86,0.00,,---,0.00,VWS V14.01,2013-04-17 04:20:00,
2013-04-17 00:25:00,63.5,59.6,30.26,SSW,207,1.0,1.0,87,0.00,,---,0.00,VWS V14.01,2013-04-17 04:25:00,
2013-04-17 00:30:00,63.3,59.4,30.26,South,188,2.0,2.0,87,0.00,,---,0.00,VWS V14.01,2013-04-17 04:30:00,
2013-04-17 00:35:00,63.3,59.7,30.26,SW,223,2.0,2.0,88,0.00,,---,0.00,VWS V14.01,2013-04-17 04:35:00,
2013-04-17 00:40:00,63.2,59.6,30.25,SSW,211,3.0,3.0,88,0.00,,---,0.00,VWS V14.01,2013-04-17 04:40:00,
2013-04-17 00:45:00,63.0,59.4,30.25,South,187,2.0,3.0,88,0.00,,---,0.00,VWS V14.01,2013-04-17 04:45:00,
2013-04-17 00:50:00,62.9,59.6,30.25,SE,146,0.0,0.0,89,0.00,,---,0.00,VWS V14.01,2013-04-17 04:50:00,
2013-04-17 00:55:00,62.8,59.5,30.25,South,176,1.0,1.0,89,0.00,,---,0.00,VWS V14.01,2013-04-17 04:55:00,
2013-04-17 01:00:00,62.7,59.7,30.25,SSE,164,1.0,2.0,90,0.00,,---,0.00,VWS V14.01,2013-04-17 05:00:00,
2013-04-17 01:05:00,62.6,59.6,30.25,SSW,206,1.0,1.0,90,0.00,,---,0.00,VWS V14.01,2013-04-17 05:05:00,
2013-04-17 01:10:00,62.5,59.5,30.25,SW,227,1.0,1.0,90,0.00,,---,0.00,VWS V14.01,2013-04-17 05:10:00,
2013-04-17 01:15:00,62.4,59.7,30.25,SSW,211,2.0,2.0,91,0.00,,---,0.00,VWS V14.01,2013-04-17 05:15:00,
2013-04-17 01:20:00,62.4,59.7,30.25,South,173,2.0,3.0,91,0.00,,---,0.00,VWS V14.01,2013-04-17 05:20:00,
2013-04-17 01:25:00,62.3,59.6,30.25,SW,232,0.0,3.0,91,0.00,,---,0.00,VWS V14.01,2013-04-17 05:25:00,
2013-04-17 01:30:00,62.2,59.5,30.25,SW,227,1.0,1.0,91,0.00,,---,0.00,VWS V14.01,2013-04-17 05:30:00,
2013-04-17 01:35:00,62.2,59.5,30.25,SW,221,1.0,2.0,91,0.00,,---,0.00,VWS V14.01,2013-04-17 05:35:00,
2013-04-17 01:40:00,62.1,59.5,30.25,South,175,2.0,2.0,91,0.00,,---,0.00,VWS V14.01,2013-04-17 05:40:00,
2013-04-17 01:45:00,62.0,59.7,30.25,SW,231,0.0,2.0,92,0.00,,---,0.00,VWS V14.01,2013-04-17 05:45:00,
2013-04-17 01:50:00,61.9,59.5,30.25,SSW,206,1.0,2.0,92,0.00,,---,0.00,VWS V14.01,2013-04-17 05:50:00,
2013-04-17 01:55:00,61.9,59.5,30.25,West,260,0.0,2.0,92,0.00,,---,0.00,VWS V14.01,2013-04-17 05:55:00,
2013-04-17 02:00:00,61.9,59.5,30.25,SW,233,1.0,2.0,92,0.00,,---,0.00,VWS V14.01,2013-04-17 06:00:00,
2013-04-17 02:05:00,61.8,59.5,30.25,WSW,250,1.0,1.0,92,0.00,,---,0.00,VWS V14.01,2013-04-17 06:05:00,
2013-04-17 02:10:00,61.8,59.5,30.25,WSW,245,2.0,2.0,92,0.00,,---,0.00,VWS V14.01,2013-04-17 06:10:00,
2013-04-17 02:15:00,61.7,59.4,30.25,SW,227,1.0,2.0,92,0.00,,---,0.00,VWS V14.01,2013-04-17 06:15:00,
2013-04-17 02:19:00,61.6,59.3,30.25,SW,236,1.0,1.0,92,0.00,,---,0.00,VWS V14.01,2013-04-17 06:19:00,
2013-04-17 02:24:00,61.5,59.2,30.25,SW,221,0.0,1.0,92,0.00,,---,0.00,VWS V14.01,2013-04-17 06:24:00,
2013-04-17 02:29:00,61.4,59.4,30.25,SW,221,0.0,0.0,93,0.00,,---,0.00,VWS V14.01,2013-04-17 06:29:00,
2013-04-17 02:34:00,61.3,59.3,30.25,SSW,205,0.0,0.0,93,0.00,,---,0.00,VWS V14.01,2013-04-17 06:34:00,
2013-04-17 02:39:00,61.2,59.2,30.25,SW,219,0.0,0.0,93,0.00,,---,0.00,VWS V14.01,2013-04-17 06:39:00,
2013-04-17 02:44:00,61.1,59.1,30.25,SW,218,0.0,0.0,93,0.00,,---,0.00,VWS V14.01,2013-04-17 06:44:00,
2013-04-17 02:49:00,61.0,59.0,30.24,SW,219,0.0,0.0,93,0.00,,---,0.00,VWS V14.01,2013-04-17 06:49:00,
2013-04-17 02:54:00,60.9,59.2,30.24,SSW,209,1.0,3.0,94,0.00,,---,0.00,VWS V14.01,2013-04-17 06:54:00,
2013-04-17 02:59:00,60.9,59.2,30.24,SSW,201,1.0,1.0,94,0.00,,---,0.00,VWS V14.01,2013-04-17 06:59:00,
2013-04-17 03:04:00,60.8,59.1,30.24,SSW,200,0.0,1.0,94,0.00,,---,0.00,VWS V14.01,2013-04-17 07:04:00,
2013-04-17 03:09:00,60.7,59.0,30.24,SSE,157,2.0,2.0,94,0.00,,---,0.00,VWS V14.01,2013-04-17 07:09:00,
2013-04-17 03:14:00,60.7,59.0,30.24,South,172,0.0,1.0,94,0.00,,---,0.00,VWS V14.01,2013-04-17 07:14:00,
2013-04-17 03:19:00,60.6,58.9,30.24,South,172,2.0,2.0,94,0.00,,---,0.00,VWS V14.01,2013-04-17 07:19:00,
2013-04-17 03:24:00,60.5,58.8,30.23,SSE,163,1.0,1.0,94,0.00,,---,0.00,VWS V14.01,2013-04-17 07:24:00,
2013-04-17 03:29:00,60.5,58.8,30.23,South,186,2.0,2.0,94,0.00,,---,0.00,VWS V14.01,2013-04-17 07:29:00,
2013-04-17 03:34:00,60.4,58.7,30.23,South,191,1.0,1.0,94,0.00,,---,0.00,VWS V14.01,2013-04-17 07:34:00,
2013-04-17 03:39:00,60.4,58.7,30.23,SW,229,1.0,3.0,94,0.00,,---,0.00,VWS V14.01,2013-04-17 07:39:00,
2013-04-17 03:44:00,60.3,58.6,30.23,South,188,1.0,1.0,94,0.00,,---,0.00,VWS V14.01,2013-04-17 07:44:00,
2013-04-17 03:49:00,60.2,58.5,30.23,South,182,0.0,1.0,94,0.00,,---,0.00,VWS V14.01,2013-04-17 07:49:00,
2013-04-17 03:54:00,60.2,58.8,30.23,SSE,157,2.0,2.0,95,0.00,,---,0.00,VWS V14.01,2013-04-17 07:54:00,
2013-04-17 03:59:00,60.1,58.7,30.23,South,176,1.0,1.0,95,0.00,,---,0.00,VWS V14.01,2013-04-17 07:59:00,
2013-04-17 04:04:00,60.1,58.7,30.23,SSE,164,1.0,1.0,95,0.00,,---,0.00,VWS V14.01,2013-04-17 08:04:00,
2013-04-17 04:09:00,60.1,58.7,30.22,South,191,2.0,2.0,95,0.00,,---,0.00,VWS V14.01,2013-04-17 08:09:00,
2013-04-17 04:14:00,60.0,58.6,30.23,SSE,157,0.0,0.0,95,0.00,,---,0.00,VWS V14.01,2013-04-17 08:14:00,
2013-04-17 04:19:00,59.9,58.5,30.23,SSE,157,0.0,0.0,95,0.00,,---,0.00,VWS V14.01,2013-04-17 08:19:00,
2013-04-17 04:24:00,59.8,58.4,30.23,SSE,159,0.0,0.0,95,0.00,,---,0.00,VWS V14.01,2013-04-17 08:24:00,
2013-04-17 04:29:00,59.8,58.4,30.23,South,178,0.0,0.0,95,0.00,,---,0.00,VWS V14.01,2013-04-17 08:29:00,
2013-04-17 04:34:00,59.7,58.3,30.22,South,178,0.0,0.0,95,0.00,,---,0.00,VWS V14.01,2013-04-17 08:34:00,
2013-04-17 04:39:00,59.7,58.3,30.22,SW,221,0.0,0.0,95,0.00,,---,0.00,VWS V14.01,2013-04-17 08:39:00,
2013-04-17 04:44:00,59.7,58.3,30.22,WSW,238,1.0,2.0,95,0.00,,---,0.00,VWS V14.01,2013-04-17 08:44:00,
2013-04-17 04:49:00,59.7,58.3,30.22,SW,227,0.0,1.0,95,0.00,,---,0.00,VWS V14.01,2013-04-17 08:49:00,
2013-04-17 04:54:00,59.6,58.2,30.22,South,169,0.0,0.0,95,0.00,,---,0.00,VWS V14.01,2013-04-17 08:54:00,
2013-04-17 04:59:00,59.6,58.2,30.22,SW,225,1.0,1.0,95,0.00,,---,0.00,VWS V14.01,2013-04-17 08:59:00,
2013-04-17 05:04:00,59.6,58.5,30.22,SW,221,2.0,4.0,96,0.00,,---,0.00,VWS V14.01,2013-04-17 09:04:00,
2013-04-17 05:09:00,59.6,58.5,30.23,SW,218,0.0,0.0,96,0.00,,---,0.00,VWS V14.01,2013-04-17 09:09:00,
2013-04-17 05:14:00,59.5,58.4,30.23,SW,225,0.0,0.0,96,0.00,,---,0.00,VWS V14.01,2013-04-17 09:14:00,
2013-04-17 05:19:00,59.5,58.4,30.23,South,188,0.0,1.0,96,0.00,,---,0.00,VWS V14.01,2013-04-17 09:19:00,
2013-04-17 05:24:00,59.5,58.4,30.23,SSW,193,2.0,2.0,96,0.00,,---,0.00,VWS V14.01,2013-04-17 09:24:00,
2013-04-17 05:29:00,59.5,58.4,30.23,SSW,209,1.0,1.0,96,0.00,,---,0.00,VWS V14.01,2013-04-17 09:29:00,
2013-04-17 05:34:00,59.4,58.3,30.23,SSW,207,1.0,2.0,96,0.00,,---,0.00,VWS V14.01,2013-04-17 09:34:00,
2013-04-17 05:39:00,59.4,58.3,30.23,South,191,1.0,2.0,96,0.00,,---,0.00,VWS V14.01,2013-04-17 09:39:00,
2013-04-17 05:44:00,59.4,58.3,30.23,SW,223,0.0,1.0,96,0.00,,---,0.00,VWS V14.01,2013-04-17 09:44:00,
2013-04-17 05:49:00,59.3,58.2,30.23,WSW,240,0.0,0.0,96,0.00,,---,0.00,VWS V14.01,2013-04-17 09:49:00,
2013-04-17 05:54:00,59.3,58.2,30.24,WSW,240,0.0,0.0,96,0.00,,---,0.00,VWS V14.01,2013-04-17 09:54:00,
2013-04-17 05:59:00,59.3,58.2,30.24,WSW,244,1.0,2.0,96,0.00,,---,0.00,VWS V14.01,2013-04-17 09:59:00,
2013-04-17 06:04:00,59.1,58.0,30.24,WSW,246,0.0,0.0,96,0.00,,---,0.00,VWS V14.01,2013-04-17 10:04:00,
2013-04-17 06:09:00,59.2,58.1,30.24,WSW,257,1.0,1.0,96,0.00,,---,0.00,VWS V14.01,2013-04-17 10:09:00,
2013-04-17 06:14:00,59.2,58.1,30.24,WSW,257,1.0,1.0,96,0.00,,---,0.00,VWS V14.01,2013-04-17 10:14:00,
2013-04-17 06:19:00,59.1,58.0,30.24,WSW,238,1.0,1.0,96,0.00,,---,0.00,VWS V14.01,2013-04-17 10:19:00,
2013-04-17 06:24:00,59.0,57.9,30.24,WSW,239,0.0,0.0,96,0.00,,---,0.00,VWS V14.01,2013-04-17 10:24:00,
2013-04-17 06:29:00,59.0,57.9,30.24,WSW,240,0.0,0.0,96,0.00,,---,0.00,VWS V14.01,2013-04-17 10:29:00,
2013-04-17 06:34:00,59.0,57.9,30.24,WSW,249,2.0,2.0,96,0.00,,---,0.00,VWS V14.01,2013-04-17 10:34:00,
2013-04-17 06:39:00,59.2,58.1,30.24,SSW,209,2.0,2.0,96,0.00,,---,0.00,VWS V14.01,2013-04-17 10:39:00,
2013-04-17 06:44:00,59.3,58.2,30.25,WSW,257,1.0,1.0,96,0.00,,---,0.00,VWS V14.01,2013-04-17 10:44:00,
2013-04-17 06:49:00,59.6,58.8,30.25,WSW,249,1.0,1.0,97,0.00,,---,0.00,VWS V14.01,2013-04-17 10:49:00,
2013-04-17 06:54:00,59.7,58.8,30.25,West,277,0.0,0.0,97,0.00,,---,0.00,VWS V14.01,2013-04-17 10:54:00,
2013-04-17 06:59:00,59.9,59.0,30.25,WSW,237,0.0,0.0,97,0.00,,---,0.00,VWS V14.01,2013-04-17 10:59:00,
2013-04-17 07:04:00,60.0,58.9,30.26,SW,236,0.0,0.0,96,0.00,,---,0.00,VWS V14.01,2013-04-17 11:04:00,
2013-04-17 07:09:00,60.1,59.0,30.26,WSW,245,1.0,1.0,96,0.00,,---,0.00,VWS V14.01,2013-04-17 11:09:00,
2013-04-17 07:14:00,60.3,59.2,30.26,SW,231,1.0,1.0,96,0.00,,---,0.00,VWS V14.01,2013-04-17 11:14:00,
2013-04-17 07:19:00,60.5,59.4,30.26,SW,233,0.0,0.0,96,0.00,,---,0.00,VWS V14.01,2013-04-17 11:19:00,
2013-04-17 07:24:00,60.7,59.6,30.26,West,262,1.0,4.0,96,0.00,,---,0.00,VWS V14.01,2013-04-17 11:24:00,
2013-04-17 07:29:00,60.8,59.7,30.26,West,263,1.0,2.0,96,0.00,,---,0.00,VWS V14.01,2013-04-17 11:29:00,
2013-04-17 07:34:00,60.9,59.8,30.26,West,264,2.0,2.0,96,0.00,,---,0.00,VWS V14.01,2013-04-17 11:34:00,
2013-04-17 07:39:00,61.2,60.0,30.27,WSW,257,0.0,1.0,96,0.00,,---,0.00,VWS V14.01,2013-04-17 11:39:00,
2013-04-17 07:44:00,61.3,60.2,30.26,West,262,2.0,3.0,96,0.00,,---,0.00,VWS V14.01,2013-04-17 11:44:00,
2013-04-17 07:49:00,61.6,60.5,30.26,WSW,238,2.0,4.0,96,0.00,,---,0.00,VWS V14.01,2013-04-17 11:49:00,
2013-04-17 07:54:00,61.8,60.7,30.26,West,260,1.0,3.0,96,0.00,,---,0.00,VWS V14.01,2013-04-17 11:54:00,
2013-04-17 07:59:00,62.1,61.0,30.26,West,281,3.0,3.0,96,0.00,,---,0.00,VWS V14.01,2013-04-17 11:59:00,
2013-04-17 08:04:00,62.5,61.3,30.27,West,261,1.0,2.0,96,0.00,,---,0.00,VWS V14.01,2013-04-17 12:04:00,
2013-04-17 08:09:00,62.9,61.5,30.26,WSW,241,3.0,4.0,95,0.00,,---,0.00,VWS V14.01,2013-04-17 12:09:00,
2013-04-17 08:14:00,63.3,61.8,30.26,SW,222,6.0,6.0,95,0.00,,---,0.00,VWS V14.01,2013-04-17 12:14:00,
2013-04-17 08:19:00,63.6,61.8,30.26,South,169,1.0,4.0,94,0.00,,---,0.00,VWS V14.01,2013-04-17 12:19:00,
2013-04-17 08:24:00,63.8,62.0,30.25,South,178,2.0,6.0,94,0.00,,---,0.00,VWS V14.01,2013-04-17 12:24:00,
2013-04-17 08:29:00,64.0,61.9,30.25,SW,214,5.0,6.0,93,0.00,,---,0.00,VWS V14.01,2013-04-17 12:29:00,
2013-04-17 08:34:00,64.3,62.2,30.25,SW,217,3.0,4.0,93,0.00,,---,0.00,VWS V14.01,2013-04-17 12:34:00,
2013-04-17 08:39:00,64.7,62.3,30.25,NW,316,2.0,5.0,92,0.00,,---,0.00,VWS V14.01,2013-04-17 12:39:00,
2013-04-17 08:44:00,65.1,62.4,30.25,WSW,246,4.0,4.0,91,0.00,,---,0.00,VWS V14.01,2013-04-17 12:44:00,
2013-04-17 08:49:00,65.5,62.5,30.25,WNW,285,4.0,4.0,90,0.00,,---,0.00,VWS V14.01,2013-04-17 12:49:00,
2013-04-17 08:54:00,65.8,62.5,30.25,SW,230,4.0,6.0,89,0.00,,---,0.00,VWS V14.01,2013-04-17 12:54:00,
2013-04-17 08:59:00,66.0,62.7,30.25,West,267,4.0,5.0,89,0.00,,---,0.00,VWS V14.01,2013-04-17 12:59:00,
2013-04-17 09:04:00,66.2,62.5,30.24,West,267,5.0,5.0,88,0.00,,---,0.00,VWS V14.01,2013-04-17 13:04:00,
2013-04-17 09:08:00,66.4,62.7,30.24,WNW,286,8.0,8.0,88,0.00,,---,0.00,VWS V14.01,2013-04-17 13:08:00,
2013-04-17 09:13:00,66.6,62.3,30.24,WSW,253,2.0,4.0,86,0.00,,---,0.00,VWS V14.01,2013-04-17 13:13:00,
2013-04-17 09:18:00,66.9,62.2,30.24,SW,227,6.0,7.0,85,0.00,,---,0.00,VWS V14.01,2013-04-17 13:18:00,
2013-04-17 09:23:00,67.3,62.3,30.24,West,276,8.0,8.0,84,0.00,,---,0.00,VWS V14.01,2013-04-17 13:23:00,
2013-04-17 09:28:00,67.6,62.3,30.24,SW,233,5.0,5.0,83,0.00,,---,0.00,VWS V14.01,2013-04-17 13:28:00,
2013-04-17 09:33:00,67.9,62.5,30.24,West,269,8.0,8.0,83,0.00,,---,0.00,VWS V14.01,2013-04-17 13:33:00,
2013-04-17 09:38:00,68.5,63.1,30.23,SW,234,5.0,6.0,83,0.00,,---,0.00,VWS V14.01,2013-04-17 13:38:00,
2013-04-17 09:43:00,68.7,62.6,30.23,SW,223,5.0,5.0,81,0.00,,---,0.00,VWS V14.01,2013-04-17 13:43:00,
2013-04-17 09:48:00,68.9,62.5,30.24,WNW,293,5.0,7.0,80,0.00,,---,0.00,VWS V14.01,2013-04-17 13:48:00,
2013-04-17 09:53:00,69.1,62.7,30.24,West,260,4.0,6.0,80,0.00,,---,0.00,VWS V14.01,2013-04-17 13:53:00,
2013-04-17 09:58:00,69.6,62.8,30.23,WNW,283,9.0,10.0,79,0.00,,---,0.00,VWS V14.01,2013-04-17 13:58:00,
2013-04-17 10:03:00,69.7,62.9,30.23,SSW,207,4.0,5.0,79,0.00,,---,0.00,VWS V14.01,2013-04-17 14:03:00,
2013-04-17 10:08:00,70.2,63.0,30.23,WNW,286,2.0,5.0,78,0.00,,---,0.00,VWS V14.01,2013-04-17 14:08:00,
2013-04-17 10:13:00,70.4,63.2,30.23,SSE,159,1.0,3.0,78,0.00,,---,0.00,VWS V14.01,2013-04-17 14:13:00,
2013-04-17 10:18:00,71.3,64.1,30.23,SW,236,5.0,5.0,78,0.00,,---,0.00,VWS V14.01,2013-04-17 14:18:00,
2013-04-17 10:23:00,71.4,63.5,30.23,WSW,256,1.0,5.0,76,0.00,,---,0.00,VWS V14.01,2013-04-17 14:23:00,
2013-04-17 10:28:00,71.5,63.5,30.23,SW,222,3.0,4.0,76,0.00,,---,0.00,VWS V14.01,2013-04-17 14:28:00,
2013-04-17 10:33:00,72.0,63.7,30.24,WSW,240,3.0,3.0,75,0.00,,---,0.00,VWS V14.01,2013-04-17 14:33:00,
2013-04-17 10:38:00,72.4,64.0,30.23,WSW,244,3.0,4.0,75,0.00,,---,0.00,VWS V14.01,2013-04-17 14:38:00,
2013-04-17 10:43:00,72.9,63.8,30.23,SSW,205,3.0,3.0,73,0.00,,---,0.00,VWS V14.01,2013-04-17 14:43:00,
2013-04-17 10:48:00,73.1,63.5,30.23,WSW,250,3.0,4.0,72,0.00,,---,0.00,VWS V14.01,2013-04-17 14:48:00,
2013-04-17 10:53:00,72.5,63.4,30.23,West,277,5.0,8.0,73,0.00,,---,0.00,VWS V14.01,2013-04-17 14:53:00,
2013-04-17 10:58:00,72.8,63.7,30.23,West,271,3.0,4.0,73,0.00,,---,0.00,VWS V14.01,2013-04-17 14:58:00,
2013-04-17 11:03:00,73.2,63.2,30.23,WNW,287,6.0,8.0,71,0.00,,---,0.00,VWS V14.01,2013-04-17 15:03:00,
2013-04-17 11:08:00,73.1,63.5,30.23,WSW,252,2.0,3.0,72,0.00,,---,0.00,VWS V14.01,2013-04-17 15:08:00,
2013-04-17 11:13:00,73.5,63.9,30.23,SW,215,3.0,4.0,72,0.00,,---,0.00,VWS V14.01,2013-04-17 15:13:00,
2013-04-17 11:18:00,73.7,64.1,30.23,SW,223,5.0,5.0,72,0.00,,---,0.00,VWS V14.01,2013-04-17 15:18:00,
2013-04-17 11:23:00,74.0,63.6,30.23,West,263,3.0,4.0,70,0.00,,---,0.00,VWS V14.01,2013-04-17 15:23:00,
2013-04-17 11:28:00,74.6,63.3,30.23,East,90,1.0,3.0,68,0.00,,---,0.00,VWS V14.01,2013-04-17 15:28:00,
2013-04-17 11:33:00,74.8,63.5,30.23,ESE,122,0.0,1.0,68,0.00,,---,0.00,VWS V14.01,2013-04-17 15:33:00,
2013-04-17 11:38:00,75.3,64.0,30.23,WSW,244,2.0,3.0,68,0.00,,---,0.00,VWS V14.01,2013-04-17 15:38:00,
2013-04-17 11:43:00,76.3,64.1,30.23,WSW,238,1.0,1.0,66,0.00,,---,0.00,VWS V14.01,2013-04-17 15:43:00,
2013-04-17 11:48:00,76.2,64.0,30.22,WSW,245,4.0,4.0,66,0.00,,---,0.00,VWS V14.01,2013-04-17 15:48:00,
2013-04-17 11:53:00,76.3,63.7,30.22,WNW,294,1.0,3.0,65,0.00,,---,0.00,VWS V14.01,2013-04-17 15:53:00,
2013-04-17 11:58:00,76.6,63.5,30.22,WNW,294,1.0,4.0,64,0.00,,---,0.00,VWS V14.01,2013-04-17 15:58:00,
2013-04-17 12:03:00,76.6,63.5,30.22,SW,218,2.0,2.0,64,0.00,,---,0.00,VWS V14.01,2013-04-17 16:03:00,
2013-04-17 12:08:00,76.8,63.7,30.22,WNW,291,5.0,7.0,64,0.00,,---,0.00,VWS V14.01,2013-04-17 16:08:00,
2013-04-17 12:13:00,76.6,63.1,30.22,WNW,282,5.0,7.0,63,0.00,,---,0.00,VWS V14.01,2013-04-17 16:13:00,
2013-04-17 12:18:00,77.1,63.5,30.22,West,279,0.0,1.0,63,0.00,,---,0.00,VWS V14.01,2013-04-17 16:18:00,
2013-04-17 12:23:00,78.3,63.8,30.22,SW,236,4.0,6.0,61,0.00,,---,0.00,VWS V14.01,2013-04-17 16:23:00,
2013-04-17 12:28:00,78.0,63.5,30.22,West,265,5.0,7.0,61,0.00,,---,0.00,VWS V14.01,2013-04-17 16:28:00,
2013-04-17 12:33:00,77.6,63.6,30.21,SSE,163,2.0,2.0,62,0.00,,---,0.00,VWS V14.01,2013-04-17 16:33:00,
2013-04-17 12:38:00,77.8,63.3,30.21,SW,229,5.0,6.0,61,0.00,,---,0.00,VWS V14.01,2013-04-17 16:38:00,
2013-04-17 12:43:00,77.4,63.4,30.21,SW,220,2.0,2.0,62,0.00,,---,0.00,VWS V14.01,2013-04-17 16:43:00,
2013-04-17 12:48:00,77.7,63.7,30.21,SW,219,2.0,3.0,62,0.00,,---,0.00,VWS V14.01,2013-04-17 16:48:00,
2013-04-17 12:53:00,78.2,63.7,30.20,West,265,4.0,7.0,61,0.00,,---,0.00,VWS V14.01,2013-04-17 16:53:00,
2013-04-17 12:58:00,78.4,63.8,30.20,South,190,3.0,3.0,61,0.00,,---,0.00,VWS V14.01,2013-04-17 16:58:00,
2013-04-17 13:03:00,78.0,63.5,30.20,SSW,192,1.0,2.0,61,0.00,,---,0.00,VWS V14.01,2013-04-17 17:03:00,
2013-04-17 13:08:00,78.7,63.7,30.20,SSW,207,4.0,4.0,60,0.00,,---,0.00,VWS V14.01,2013-04-17 17:08:00,
2013-04-17 13:13:00,78.9,63.8,30.20,West,260,6.0,6.0,60,0.00,,---,0.00,VWS V14.01,2013-04-17 17:13:00,
2013-04-17 13:18:00,78.9,64.3,30.20,WSW,239,7.0,7.0,61,0.00,,---,0.00,VWS V14.01,2013-04-17 17:18:00,
2013-04-17 13:23:00,77.9,63.4,30.20,WSW,249,3.0,4.0,61,0.00,,---,0.00,VWS V14.01,2013-04-17 17:23:00,
2013-04-17 13:28:00,77.6,63.6,30.20,West,269,1.0,2.0,62,0.00,,---,0.00,VWS V14.01,2013-04-17 17:28:00,
2013-04-17 13:33:00,77.8,63.8,30.20,WSW,244,4.0,4.0,62,0.00,,---,0.00,VWS V14.01,2013-04-17 17:33:00,
2013-04-17 13:38:00,77.4,63.4,30.20,NNW,327,2.0,2.0,62,0.00,,---,0.00,VWS V14.01,2013-04-17 17:38:00,
2013-04-17 13:43:00,77.4,63.8,30.20,West,277,8.0,8.0,63,0.00,,---,0.00,VWS V14.01,2013-04-17 17:43:00,
2013-04-17 13:48:00,77.6,63.6,30.19,West,261,6.0,6.0,62,0.00,,---,0.00,VWS V14.01,2013-04-17 17:48:00,
2013-04-17 13:53:00,77.7,63.2,30.20,West,271,3.0,3.0,61,0.00,,---,0.00,VWS V14.01,2013-04-17 17:53:00,
2013-04-17 13:58:00,77.7,64.1,30.19,West,276,1.0,2.0,63,0.00,,---,0.00,VWS V14.01,2013-04-17 17:58:00,
2013-04-17 14:03:00,78.1,64.0,30.19,WNW,302,1.0,1.0,62,0.00,,---,0.00,VWS V14.01,2013-04-17 18:03:00,
2013-04-17 14:08:00,78.4,64.3,30.19,NW,318,2.0,5.0,62,0.00,,---,0.00,VWS V14.01,2013-04-17 18:08:00,
2013-04-17 14:13:00,78.4,64.3,30.19,WNW,286,2.0,2.0,62,0.00,,---,0.00,VWS V14.01,2013-04-17 18:13:00,
2013-04-17 14:18:00,78.3,64.2,30.19,NW,316,2.0,4.0,62,0.00,,---,0.00,VWS V14.01,2013-04-17 18:18:00,
2013-04-17 14:23:00,78.7,64.1,30.19,WNW,295,4.0,4.0,61,0.00,,---,0.00,VWS V14.01,2013-04-17 18:23:00,
2013-04-17 14:28:00,79.6,65.0,30.19,NNE,30,2.0,3.0,61,0.00,,---,0.00,VWS V14.01,2013-04-17 18:28:00,
2013-04-17 14:33:00,79.4,64.3,30.18,West,259,2.0,3.0,60,0.00,,---,0.00,VWS V14.01,2013-04-17 18:33:00,
2013-04-17 14:38:00,80.3,64.2,30.18,WNW,286,4.0,5.0,58,0.00,,---,0.00,VWS V14.01,2013-04-17 18:38:00,
2013-04-17 14:43:00,80.1,64.5,30.18,ESE,110,1.0,2.0,59,0.00,,---,0.00,VWS V14.01,2013-04-17 18:43:00,
2013-04-17 14:48:00,80.4,64.3,30.18,WNW,283,7.0,7.0,58,0.00,,---,0.00,VWS V14.01,2013-04-17 18:48:00,
2013-04-17 14:53:00,79.7,64.6,30.18,WSW,244,1.0,3.0,60,0.00,,---,0.00,VWS V14.01,2013-04-17 18:53:00,
2013-04-17 14:58:00,80.0,63.9,30.18,West,271,5.0,8.0,58,0.00,,---,0.00,VWS V14.01,2013-04-17 18:58:00,
2013-04-17 15:03:00,79.5,64.4,30.18,West,265,1.0,3.0,60,0.00,,---,0.00,VWS V14.01,2013-04-17 19:03:00,
2013-04-17 15:08:00,79.6,64.5,30.18,WSW,248,5.0,5.0,60,0.00,,---,0.00,VWS V14.01,2013-04-17 19:08:00,
2013-04-17 15:13:00,79.5,63.9,30.17,SW,232,2.0,4.0,59,0.00,,---,0.00,VWS V14.01,2013-04-17 19:13:00,
2013-04-17 15:18:00,79.2,64.1,30.17,West,275,4.0,7.0,60,0.00,,---,0.00,VWS V14.01,2013-04-17 19:18:00,
2013-04-17 15:23:00,79.2,64.1,30.17,WSW,252,3.0,4.0,60,0.00,,---,0.00,VWS V14.01,2013-04-17 19:23:00,
2013-04-17 15:28:00,79.2,64.6,30.17,West,259,3.0,6.0,61,0.00,,---,0.00,VWS V14.01,2013-04-17 19:28:00,
2013-04-17 15:33:00,78.9,64.3,30.16,West,272,4.0,5.0,61,0.00,,---,0.00,VWS V14.01,2013-04-17 19:33:00,
2013-04-17 15:38:00,78.6,64.0,30.16,SSW,213,3.0,4.0,61,0.00,,---,0.00,VWS V14.01,2013-04-17 19:38:00,
2013-04-17 15:43:00,78.8,63.8,30.16,WNW,292,3.0,5.0,60,0.00,,---,0.00,VWS V14.01,2013-04-17 19:43:00,
2013-04-17 15:47:00,79.5,63.9,30.15,South,171,3.0,3.0,59,0.00,,---,0.00,VWS V14.01,2013-04-17 19:47:00,
2013-04-17 15:52:00,80.5,64.4,30.15,WNW,288,0.0,1.0,58,0.00,,---,0.00,VWS V14.01,2013-04-17 19:52:00,
2013-04-17 15:57:00,82.0,64.8,30.15,WSW,258,3.0,5.0,56,0.00,,---,0.00,VWS V14.01,2013-04-17 19:57:00,
2013-04-17 16:02:00,80.9,63.8,30.15,West,272,2.0,3.0,56,0.00,,---,0.00,VWS V14.01,2013-04-17 20:02:00,
2013-04-17 16:07:00,81.1,63.9,30.15,West,267,0.0,1.0,56,0.00,,---,0.00,VWS V14.01,2013-04-17 20:07:00,
2013-04-17 16:12:00,81.6,63.9,30.15,SSE,165,2.0,4.0,55,0.00,,---,0.00,VWS V14.01,2013-04-17 20:12:00,
2013-04-17 16:17:00,81.4,64.2,30.15,West,265,4.0,4.0,56,0.00,,---,0.00,VWS V14.01,2013-04-17 20:17:00,
2013-04-17 16:22:00,81.2,64.0,30.15,SW,217,4.0,5.0,56,0.00,,---,0.00,VWS V14.01,2013-04-17 20:22:00,
2013-04-17 16:27:00,80.7,63.6,30.15,WNW,302,2.0,2.0,56,0.00,,---,0.00,VWS V14.01,2013-04-17 20:27:00,
2013-04-17 16:32:00,81.4,64.2,30.15,SSE,163,3.0,3.0,56,0.00,,---,0.00,VWS V14.01,2013-04-17 20:32:00,
2013-04-17 16:37:00,81.3,64.1,30.14,West,261,2.0,2.0,56,0.00,,---,0.00,VWS V14.01,2013-04-17 20:37:00,
2013-04-17 16:42:00,81.3,64.1,30.14,SSW,199,2.0,3.0,56,0.00,,---,0.00,VWS V14.01,2013-04-17 20:42:00,
2013-04-17 16:47:00,81.2,63.5,30.14,NW,315,0.0,1.0,55,0.00,,---,0.00,VWS V14.01,2013-04-17 20:47:00,
2013-04-17 16:52:00,81.5,64.3,30.14,West,279,2.0,3.0,56,0.00,,---,0.00,VWS V14.01,2013-04-17 20:52:00,
2013-04-17 16:57:00,81.8,64.6,30.14,SSW,196,0.0,1.0,56,0.00,,---,0.00,VWS V14.01,2013-04-17 20:57:00,
2013-04-17 17:02:00,81.7,64.5,30.13,SSW,202,4.0,4.0,56,0.00,,---,0.00,VWS V14.01,2013-04-17 21:02:00,
2013-04-17 17:07:00,81.1,63.9,30.13,WSW,238,1.0,4.0,56,0.00,,---,0.00,VWS V14.01,2013-04-17 21:07:00,
2013-04-17 17:12:00,80.6,63.5,30.13,SW,236,1.0,1.0,56,0.00,,---,0.00,VWS V14.01,2013-04-17 21:12:00,
2013-04-17 17:17:00,80.4,63.8,30.13,SW,225,1.0,3.0,57,0.00,,---,0.00,VWS V14.01,2013-04-17 21:17:00,
2013-04-17 17:22:00,80.5,63.9,30.13,SSE,163,3.0,4.0,57,0.00,,---,0.00,VWS V14.01,2013-04-17 21:22:00,
2013-04-17 17:27:00,80.5,64.4,30.13,West,263,3.0,3.0,58,0.00,,---,0.00,VWS V14.01,2013-04-17 21:27:00,
2013-04-17 17:32:00,80.6,64.0,30.13,SW,223,2.0,3.0,57,0.00,,---,0.00,VWS V14.01,2013-04-17 21:32:00,
2013-04-17 17:37:00,80.8,64.2,30.13,SSW,196,1.0,2.0,57,0.00,,---,0.00,VWS V14.01,2013-04-17 21:37:00,
2013-04-17 17:42:00,81.3,64.6,30.13,SW,217,2.0,4.0,57,0.00,,---,0.00,VWS V14.01,2013-04-17 21:42:00,
2013-04-17 17:47:00,81.4,64.2,30.14,WSW,253,1.0,3.0,56,0.00,,---,0.00,VWS V14.01,2013-04-17 21:47:00,
2013-04-17 17:52:00,81.7,64.5,30.14,SW,219,5.0,5.0,56,0.00,,---,0.00,VWS V14.01,2013-04-17 21:52:00,
2013-04-17 17:57:00,81.4,64.2,30.14,WSW,240,2.0,2.0,56,0.00,,---,0.00,VWS V14.01,2013-04-17 21:57:00,
2013-04-17 18:02:00,81.6,64.4,30.14,South,181,3.0,3.0,56,0.00,,---,0.00,VWS V14.01,2013-04-17 22:02:00,
2013-04-17 18:07:00,81.8,64.1,30.14,WSW,237,3.0,3.0,55,0.00,,---,0.00,VWS V14.01,2013-04-17 22:07:00,
2013-04-17 18:12:00,81.9,64.2,30.14,SSW,205,1.0,4.0,55,0.00,,---,0.00,VWS V14.01,2013-04-17 22:12:00,
2013-04-17 18:17:00,82.1,64.3,30.14,West,281,3.0,3.0,55,0.00,,---,0.00,VWS V14.01,2013-04-17 22:17:00,
2013-04-17 18:22:00,81.3,64.1,30.14,WSW,244,3.0,3.0,56,0.00,,---,0.00,VWS V14.01,2013-04-17 22:22:00,
2013-04-17 18:27:00,81.0,64.3,30.14,WSW,254,3.0,3.0,57,0.00,,---,0.00,VWS V14.01,2013-04-17 22:27:00,
2013-04-17 18:32:00,80.8,64.2,30.14,WSW,250,2.0,2.0,57,0.00,,---,0.00,VWS V14.01,2013-04-17 22:32:00,
2013-04-17 18:37:00,80.6,64.5,30.14,WSW,257,0.0,0.0,58,0.00,,---,0.00,VWS V14.01,2013-04-17 22:37:00,
2013-04-17 18:42:00,80.6,64.5,30.14,ESE,109,1.0,1.0,58,0.00,,---,0.00,VWS V14.01,2013-04-17 22:42:00,
2013-04-17 18:47:00,80.2,64.1,30.14,SE,130,1.0,1.0,58,0.00,,---,0.00,VWS V14.01,2013-04-17 22:47:00,
2013-04-17 18:52:00,79.9,64.3,30.14,SW,215,0.0,1.0,59,0.00,,---,0.00,VWS V14.01,2013-04-17 22:52:00,
2013-04-17 18:57:00,79.8,64.7,30.14,SSE,153,0.0,0.0,60,0.00,,---,0.00,VWS V14.01,2013-04-17 22:57:00,
2013-04-17 19:02:00,79.8,64.7,30.14,ESE,119,0.0,1.0,60,0.00,,---,0.00,VWS V14.01,2013-04-17 23:02:00,
2013-04-17 19:07:00,79.7,64.1,30.14,South,173,0.0,1.0,59,0.00,,---,0.00,VWS V14.01,2013-04-17 23:07:00,
2013-04-17 19:12:00,79.6,64.0,30.13,ESE,117,0.0,1.0,59,0.00,,---,0.00,VWS V14.01,2013-04-17 23:12:00,
2013-04-17 19:17:00,79.5,64.4,30.13,SE,128,0.0,0.0,60,0.00,,---,0.00,VWS V14.01,2013-04-17 23:17:00,
2013-04-17 19:22:00,79.3,64.2,30.14,SSE,159,0.0,0.0,60,0.00,,---,0.00,VWS V14.01,2013-04-17 23:22:00,
2013-04-17 19:27:00,79.0,64.4,30.14,SSE,159,0.0,0.0,61,0.00,,---,0.00,VWS V14.01,2013-04-17 23:27:00,
2013-04-17 19:32:00,78.8,64.2,30.14,SSE,159,0.0,0.0,61,0.00,,---,0.00,VWS V14.01,2013-04-17 23:32:00,
2013-04-17 19:37:00,78.5,64.0,30.14,SSW,196,0.0,0.0,61,0.00,,---,0.00,VWS V14.01,2013-04-17 23:37:00,
2013-04-17 19:42:00,78.2,64.1,30.14,SSW,195,0.0,0.0,62,0.00,,---,0.00,VWS V14.01,2013-04-17 23:42:00,
2013-04-17 19:47:00,77.9,64.3,30.14,SSW,195,0.0,0.0,63,0.00,,---,0.00,VWS V14.01,2013-04-17 23:47:00,
2013-04-17 19:52:00,77.6,64.0,30.14,SSW,195,0.0,0.0,63,0.00,,---,0.00,VWS V14.01,2013-04-17 23:52:00,
2013-04-17 19:57:00,77.2,63.6,30.14,SSW,195,0.0,0.0,63,0.00,,---,0.00,VWS V14.01,2013-04-17 23:57:00,
2013-04-17 20:02:00,76.9,63.8,30.15,SSW,195,0.0,0.0,64,0.00,,---,0.00,VWS V14.01,2013-04-18 00:02:00,
2013-04-17 20:07:00,76.6,64.0,30.15,SSW,195,0.0,0.0,65,0.00,,---,0.00,VWS V14.01,2013-04-18 00:07:00,
2013-04-17 20:12:00,76.4,63.8,30.15,SSW,195,0.0,0.0,65,0.00,,---,0.00,VWS V14.01,2013-04-18 00:12:00,
2013-04-17 20:17:00,76.2,64.0,30.15,SSW,195,0.0,0.0,66,0.00,,---,0.00,VWS V14.01,2013-04-18 00:17:00,
2013-04-17 20:22:00,76.1,63.9,30.15,SSE,158,0.0,0.0,66,0.00,,---,0.00,VWS V14.01,2013-04-18 00:22:00,
2013-04-17 20:27:00,75.9,63.7,30.15,SSE,157,0.0,0.0,66,0.00,,---,0.00,VWS V14.01,2013-04-18 00:27:00,
2013-04-17 20:32:00,75.7,63.5,30.15,SSE,157,0.0,0.0,66,0.00,,---,0.00,VWS V14.01,2013-04-18 00:32:00,
2013-04-17 20:37:00,75.5,63.8,30.16,SSE,157,0.0,0.0,67,0.00,,---,0.00,VWS V14.01,2013-04-18 00:37:00,
2013-04-17 20:42:00,75.4,64.1,30.16,SSE,157,0.0,0.0,68,0.00,,---,0.00,VWS V14.01,2013-04-18 00:42:00,
2013-04-17 20:47:00,75.2,63.5,30.16,SSE,158,0.0,0.0,67,0.00,,---,0.00,VWS V14.01,2013-04-18 00:47:00,
2013-04-17 20:52:00,75.1,63.8,30.16,SSE,157,0.0,0.0,68,0.00,,---,0.00,VWS V14.01,2013-04-18 00:52:00,
2013-04-17 20:57:00,75.0,63.7,30.16,SSE,157,0.0,0.0,68,0.00,,---,0.00,VWS V14.01,2013-04-18 00:57:00,
2013-04-17 21:02:00,75.0,63.7,30.16,SSE,157,0.0,0.0,68,0.00,,---,0.00,VWS V14.01,2013-04-18 01:02:00,
2013-04-17 21:07:00,74.9,63.6,30.17,SSE,154,0.0,0.0,68,0.00,,---,0.00,VWS V14.01,2013-04-18 01:07:00,
2013-04-17 21:12:00,74.8,64.0,30.17,SSE,153,0.0,0.0,69,0.00,,---,0.00,VWS V14.01,2013-04-18 01:12:00,
2013-04-17 21:17:00,74.6,63.8,30.17,SSE,153,0.0,0.0,69,0.00,,---,0.00,VWS V14.01,2013-04-18 01:17:00,
2013-04-17 21:22:00,74.7,63.5,30.17,South,172,1.0,1.0,68,0.00,,---,0.00,VWS V14.01,2013-04-18 01:22:00,
2013-04-17 21:27:00,74.9,63.2,30.17,South,172,1.0,2.0,67,0.00,,---,0.00,VWS V14.01,2013-04-18 01:27:00,
2013-04-17 21:32:00,75.0,63.3,30.17,East,88,1.0,1.0,67,0.00,,---,0.00,VWS V14.01,2013-04-18 01:32:00,
2013-04-17 21:37:00,74.5,63.7,30.17,ESE,115,1.0,1.0,69,0.00,,---,0.00,VWS V14.01,2013-04-18 01:37:00,
2013-04-17 21:42:00,74.0,63.6,30.17,South,183,2.0,2.0,70,0.00,,---,0.00,VWS V14.01,2013-04-18 01:42:00,
2013-04-17 21:47:00,74.1,63.3,30.17,SSW,192,1.0,3.0,69,0.00,,---,0.00,VWS V14.01,2013-04-18 01:47:00,
2013-04-17 21:52:00,74.1,62.9,30.17,South,191,0.0,3.0,68,0.00,,---,0.00,VWS V14.01,2013-04-18 01:52:00,
2013-04-17 21:57:00,74.1,62.9,30.18,South,170,1.0,3.0,68,0.00,,---,0.00,VWS V14.01,2013-04-18 01:57:00,
2013-04-17 22:02:00,74.0,62.8,30.18,WSW,246,2.0,3.0,68,0.00,,---,0.00,VWS V14.01,2013-04-18 02:02:00,
2013-04-17 22:07:00,73.8,63.0,30.18,ESE,115,7.0,7.0,69,0.00,,---,0.00,VWS V14.01,2013-04-18 02:07:00,
2013-04-17 22:12:00,73.5,62.7,30.18,SSW,195,6.0,6.0,69,0.00,,---,0.00,VWS V14.01,2013-04-18 02:12:00,
2013-04-17 22:17:00,73.2,62.8,30.18,South,176,5.0,7.0,70,0.00,,---,0.00,VWS V14.01,2013-04-18 02:17:00,
2013-04-17 22:22:00,73.0,62.7,30.18,SSW,199,6.0,6.0,70,0.00,,---,0.00,VWS V14.01,2013-04-18 02:22:00,
2013-04-17 22:27:00,72.7,62.8,30.18,SSW,195,5.0,8.0,71,0.00,,---,0.00,VWS V14.01,2013-04-18 02:27:00,
2013-04-17 22:32:00,72.6,62.7,30.19,West,275,3.0,4.0,71,0.00,,---,0.00,VWS V14.01,2013-04-18 02:32:00,
2013-04-17 22:37:00,72.3,62.8,30.18,SSW,199,6.0,6.0,72,0.00,,---,0.00,VWS V14.01,2013-04-18 02:37:00,
2013-04-17 22:42:00,72.2,62.7,30.18,SSE,164,3.0,7.0,72,0.00,,---,0.00,VWS V14.01,2013-04-18 02:42:00,
2013-04-17 22:47:00,72.0,62.9,30.19,SSE,156,3.0,5.0,73,0.00,,---,0.00,VWS V14.01,2013-04-18 02:47:00,
2013-04-17 22:52:00,71.8,62.7,30.19,SSE,165,3.0,4.0,73,0.00,,---,0.00,VWS V14.01,2013-04-18 02:52:00,
2013-04-17 22:57:00,71.6,62.9,30.18,WSW,244,2.0,5.0,74,0.00,,---,0.00,VWS V14.01,2013-04-18 02:57:00,
2013-04-17 23:02:00,71.5,62.8,30.19,SW,229,2.0,4.0,74,0.00,,---,0.00,VWS V14.01,2013-04-18 03:02:00,
2013-04-17 23:07:00,71.4,62.7,30.19,SE,141,2.0,3.0,74,0.00,,---,0.00,VWS V14.01,2013-04-18 03:07:00,
2013-04-17 23:12:00,71.3,63.0,30.19,SSW,211,2.0,3.0,75,0.00,,---,0.00,VWS V14.01,2013-04-18 03:12:00,
2013-04-17 23:17:00,71.2,62.9,30.19,SW,232,5.0,5.0,75,0.00,,---,0.00,VWS V14.01,2013-04-18 03:17:00,
2013-04-17 23:22:00,71.1,62.8,30.19,SSW,202,4.0,7.0,75,0.00,,---,0.00,VWS V14.01,2013-04-18 03:22:00,
2013-04-17 23:27:00,71.0,62.7,30.19,WSW,253,3.0,4.0,75,0.00,,---,0.00,VWS V14.01,2013-04-18 03:27:00,
2013-04-17 23:31:00,70.9,62.6,30.19,WSW,252,2.0,5.0,75,0.00,,---,0.00,VWS V14.01,2013-04-18 03:31:00,
2013-04-17 23:36:00,70.8,62.5,30.20,WSW,249,2.0,3.0,75,0.00,,---,0.00,VWS V14.01,2013-04-18 03:36:00,
2013-04-17 23:41:00,70.7,62.8,30.20,WSW,252,2.0,3.0,76,0.00,,---,0.00,VWS V14.01,2013-04-18 03:41:00,
2013-04-17 23:46:00,70.6,62.3,30.19,South,171,5.0,5.0,75,0.00,,---,0.00,VWS V14.01,2013-04-18 03:46:00,
2013-04-17 23:51:00,70.5,62.2,30.19,SSW,206,1.0,3.0,75,0.00,,---,0.00,VWS V14.01,2013-04-18 03:51:00,
2013-04-17 23:56:00,70.3,62.0,30.19,West,261,2.0,2.0,75,0.00,,---,0.00,VWS V14.01,2013-04-18 03:56:00,